Weather History for KABR - February, 2014

Change the Weather History Date:

Thursday, February 20, 2014

  Actual Average Record
Temperature  
Mean Temperature 24 °F 19 °F  
Max Temperature 37 °F 30 °F 61 °F (1930)
Min Temperature 10 °F 9 °F -30 °F (1918)
Degree Days  
Heating Degree Days 41 46  
Month to date heating degree days 1148 979  
Since 1 July heating degree days 6679 6113  
Cooling Degree Days 0 0  
Month to date cooling degree days 0 0  
Year to date cooling degree days 0 0  
Moisture  
Dew Point 17 °F    
Average Humidity 74    
Maximum Humidity 84    
Minimum Humidity 63    
Precipitation  
Precipitation T in 0.02 in 0.62 in (1955)
Month to date precipitation 0.06 0.35  
Year to date precipitation 0.34 0.82  
Snow  
Snow T in - - ()
Month to date snowfall 1.0  
Since 1 July snowfall 23.9  
Snow Depth T in    
Sea Level Pressure  
Sea Level Pressure 29.70 in    
Wind  
Wind Speed 17 mph (NW)    
Max Wind Speed 32 mph    
Max Gust Speed 38 mph    
Visibility 10 miles    
Events      
T = Trace of Precipitation, MM = Missing Value Source: NWS Daily Summary

Daily Weather History Graph

Daily Weather History Graph

Search for Another Location

Airport or City:

Trip Planner

Search our weather history database for the weather conditions in past years. The results will help you decide how hot, cold, wet, or windy it might be!

Date:

Astronomy

Feb. 20, 2014 Rise Set
Actual Time 7:27 AM CST 6:08 PM CST
Civil Twilight 6:57 AM CST 6:38 PM CST
Nautical Twilight 6:22 AM CST 7:12 PM CST
Astronomical Twilight 5:48 AM CST 7:46 PM CST
Moon No Moon Rise 9:53 AM CST (2/20)
Length of Visible Light 11h 41m
Length of Day
10h 40m
Waning Gibbous, 70% of the Moon is Illuminated
Feb 20
Waning Gibbous
Feb 22
Last Quarter
Mar 1
New
Mar 8
First Quarter
Mar 16
Full

Hourly Weather History & Observations

Time (CST) Temp. Windchill Dew Point Humidity Pressure Visibility Wind Dir Wind Speed Gust Speed Precip Events Conditions
12:53 AM 36.0 °F 31.1 °F 28.0 °F 73% 29.61 in 10.0 mi WNW 5.8 mph - N/A   Overcast
1:53 AM 33.1 °F 26.9 °F 28.9 °F 85% 29.62 in 10.0 mi WSW 6.9 mph - N/A   Overcast
2:53 AM 34.0 °F 26.6 °F 28.9 °F 82% 29.63 in 10.0 mi West 9.2 mph - N/A   Overcast
3:53 AM 34.0 °F 25.5 °F 28.0 °F 79% 29.61 in 10.0 mi WNW 11.5 mph - N/A   Clear
4:53 AM 33.1 °F 24.4 °F 27.0 °F 78% 29.61 in 10.0 mi WNW 11.5 mph - N/A   Clear
5:53 AM 33.1 °F 25.5 °F 26.1 °F 75% 29.62 in 10.0 mi West 9.2 mph - N/A   Clear
6:53 AM 32.0 °F 23.0 °F 25.0 °F 75% 29.62 in 10.0 mi West 11.5 mph - N/A   Clear
7:53 AM 30.0 °F 22.4 °F 25.0 °F 82% 29.63 in 10.0 mi West 8.1 mph - N/A   Clear
8:53 AM 32.0 °F 24.2 °F 24.1 °F 73% 29.62 in 10.0 mi West 9.2 mph - N/A   Clear
9:53 AM 34.0 °F 24.2 °F 24.1 °F 67% 29.64 in 10.0 mi WNW 15.0 mph - N/A   Clear
10:53 AM 32.0 °F 19.2 °F 23.0 °F 69% 29.65 in 10.0 mi NW 23.0 mph - N/A   Clear
11:53 AM 32.0 °F 18.4 °F 21.9 °F 66% 29.65 in 10.0 mi NW 26.5 mph 33.4 mph N/A   Mostly Cloudy
12:43 PM 30.9 °F 17.5 °F 23.0 °F 72% 29.62 in 10.0 mi NW 24.2 mph 29.9 mph N/A   Overcast
12:53 PM 30.0 °F 17.2 °F 23.0 °F 75% 29.67 in 10.0 mi NNW 20.7 mph 28.8 mph N/A   Overcast
1:53 PM 21.9 °F 3.9 °F 16.0 °F 78% 29.73 in 9.0 mi NNW 29.9 mph 38.0 mph N/A   Overcast
2:30 PM 19.9 °F 1.5 °F 12.0 °F 71% 29.69 in 10.0 mi NNW 28.8 mph 35.7 mph 0.00 in   Overcast
2:53 PM 19.0 °F 0.3 °F 10.9 °F 71% 29.75 in 10.0 mi NNW 28.8 mph 36.8 mph 0.00 in   Overcast
3:53 PM 18.0 °F 0.6 °F 10.0 °F 71% 29.77 in 10.0 mi NNW 23.0 mph 36.8 mph N/A   Overcast
4:53 PM 18.0 °F -0.5 °F 10.0 °F 71% 29.79 in 10.0 mi NNW 26.5 mph 35.7 mph 0.00 in   Overcast
5:53 PM 17.1 °F -2.7 °F 9.0 °F 71% 29.82 in 10.0 mi NNW 29.9 mph 38.0 mph N/A   Overcast
6:46 PM 15.1 °F -3.7 °F 9.0 °F 77% 29.76 in 10.0 mi NNW 24.2 mph 31.1 mph N/A   Scattered Clouds
6:53 PM 15.1 °F -4.0 °F 8.1 °F 74% 29.82 in 10.0 mi NNW 25.3 mph 33.4 mph N/A   Partly Cloudy
7:53 PM 14.0 °F -4.3 °F 7.0 °F 74% 29.82 in 10.0 mi NNW 21.9 mph 28.8 mph N/A   Clear
8:53 PM 12.9 °F -2.2 °F 8.1 °F 81% 29.81 in 10.0 mi NNW 13.8 mph - N/A   Clear
9:53 PM 12.9 °F -2.8 °F 7.0 °F 77% 29.81 in 10.0 mi NW 15.0 mph - N/A   Clear
10:53 PM 10.9 °F -4.7 °F 6.1 °F 81% 29.79 in 10.0 mi NW 13.8 mph - N/A   Clear
11:53 PM 10.0 °F -5.9 °F 5.0 °F 80% 29.79 in 10.0 mi NW 13.8 mph - N/A   Clear